sat.trackr.live / text

‹ back to catalog

STARLINK-3687

NORAD 52110 · 2022-029Y

PAYLOAD ACTIVE UNKNOWN

§ Identity

Operator
Country
US
Launch date
2022-03-19
Launch site
AFETR
Launch vehicle
Mass (kg)
RCS (m²)

Purposes: comms

External: N2YO · Heavens-Above · Gunter

§ Orbital elements

Epoch: 2026-05-25T03:17:45.972960Z

Period
95.44 min
Inclination
53.2140°
Eccentricity
0.0001743
Mean motion
15.08845248 rev/d
Perigee alt
538.5 km
Apogee alt
540.9 km
Semi-major
6,917.9 km
B*
-2.9280e-5
RAAN
95.9329°
Arg perigee
83.1882°
Mean anomaly
276.9308°
Rev number
23,232

§ Raw data

STARLINK-36871 52110U 22029Y   26145.13733765 -.00000754  00000+0 -29280-4 0  99992 52110  53.2140  95.9329 0001743  83.1882 276.9308 15.08845248232320

JSON: /api/v1/satellites/52110 · /tle

For live sub-satellite position, see the globe view (requires WebGL).

§ Visibility from observer

Set your observer location to see the next 7 days of passes ≥ 10°. The values pass through the URL so the page stays shareable.

No JS? Fill the form by hand. The geolocation button needs JavaScript.